QPF
0.00 0.00 0.00 0.00 0.00 0.00 0.00 0.00 0.00 0.00 0.00 0.00 0.00 0.00 0.00 0.00 0.00 0.00 0.00 0.00 0.00 0.00 0.00 0.00 0.00 0.00 0.01 0.01 0.02 0.02 0.01 0.00 0.00 0.00 0.00 0.00 0.00 0.00 0.00 0.00 0.00 0.00 0.00 0.00 0.00 0.00 0.00 0.00 0.00
0.00 0.00 0.00 0.00 0.00 0.00 0.00 0.00 0.00 0.00 0.00 0.00 0.00 0.00 0.00 0.00 0.00 0.00 0.00 0.00 0.00 0.00 0.00 0.00 0.00 0.00 0.01 0.01 0.01 0.00 0.00 0.00 0.00 0.00 0.00 0.00 0.00 0.00 0.00 0.00 0.00 0.00 0.00 0.00 0.00 0.00 0.00 0.00 0.00
0.00 0.00 0.00 0.00 0.00 0.00 0.00 0.00 0.01 0.06 0.02 0.00 0.00 0.00 0.00 0.00 0.00 0.00 0.00 0.00 0.00 0.00 0.00 0.00 0.00 0.00 0.01 0.01 0.00 0.00 0.00 0.00 0.00 0.00 0.00 0.00 0.00 0.00 0.00 0.00 0.00 0.00 0.00 0.00 0.00 0.00 0.00 0.00 0.00
0.00 0.00 0.00 0.00 0.00 0.00 0.00 0.00 0.00 0.03 0.05 0.00 0.00 0.00 0.00 0.00 0.00 0.00 0.00 0.00 0.00 0.00 0.00 0.00 0.01 0.01 0.00 0.00 0.00 0.00 0.00 0.00 0.00 0.00 0.00 0.00 0.00 0.00 0.00 0.00 0.00 0.00 0.00 0.00 0.00 0.00 0.00 0.00 0.00
0.00 0.00 0.00 0.00 0.00 0.00 0.00 0.00 0.00 0.01 0.01 0.02 0.04 0.00 0.00 0.00 0.00 0.00 0.00 0.00 0.00 0.00 0.00 0.01 0.01 0.00 0.00 0.00 0.00 0.00 0.00 0.00 0.00 0.00 0.00 0.00 0.00 0.00 0.00 0.00 0.00 0.00 0.00 0.00 0.00 0.00 0.00 0.00 0.00
0.00 0.00 0.00 0.00 0.00 0.00 0.00 0.00 0.00 0.00 0.02 0.01 0.07 0.06 0.01 0.00 0.00 0.00 0.00 0.00 0.00 0.00 0.00 0.01 0.00 0.00 0.00 0.00 0.00 0.00 0.00 0.00 0.00 0.00 0.00 0.00 0.00 0.00 0.00 0.00 0.00 0.00 0.00 0.00 0.00 0.00 0.00 0.00 0.00
0.00 0.00 0.00 0.00 0.00 0.00 0.00 0.00 0.00 0.00 0.00 0.00 0.06 0.17 0.04 0.00 0.00 0.00 0.00 0.00 0.00 0.00 0.01 0.01 0.00 0.00 0.00 0.00 0.00 0.00 0.00 0.00 0.00 0.00 0.00 0.00 0.00 0.00 0.00 0.00 0.00 0.00 0.00 0.00 0.00 0.00 0.00 0.00 0.00
0.00 0.00 0.00 0.00 0.00 0.00 0.00 0.00 0.00 0.00 0.00 0.00 0.07 0.13 0.04 0.00 0.00 0.00 0.00 0.00 0.00 0.01 0.00 0.00 0.00 0.00 0.00 0.00 0.00 0.00 0.00 0.00 0.00 0.00 0.00 0.00 0.00 0.00 0.00 0.00 0.00 0.00 0.00 0.00 0.00 0.00 0.00 0.00 0.00
0.00 0.01 0.00 0.00 0.00 0.00 0.00 0.00 0.00 0.00 0.00 0.00 0.01 0.04 0.04 0.05 0.00 0.00 0.00 0.00 0.00 0.00 0.00 0.00 0.00 0.00 0.00 0.00 0.00 0.00 0.00 0.00 0.00 0.00 0.00 0.00 0.00 0.00 0.00 0.00 0.00 0.00 0.00 0.00 0.00 0.00 0.00 0.00 0.00
0.00 0.00 0.00 0.00 0.00 0.00 0.00 0.00 0.00 0.00 0.00 0.00 0.01 0.01 0.14 0.12 0.05 0.01 0.00 0.00 0.00 0.00 0.00 0.00 0.00 0.00 0.00 0.00 0.00 0.00 0.00 0.00 0.00 0.00 0.00 0.00 0.00 0.00 0.00 0.00 0.00 0.00 0.00 0.00 0.00 0.00 0.00 0.00 0.00
0.00 0.00 0.00 0.00 0.00 0.00 0.00 0.00 0.00 0.00 0.00 0.00 0.01 0.03 0.04 0.05 0.10 0.02 0.00 0.00 0.00 0.00 0.00 0.00 0.00 0.00 0.00 0.00 0.00 0.00 0.00 0.00 0.00 0.00 0.00 0.00 0.00 0.00 0.00 0.00 0.00 0.00 0.00 0.00 0.00 0.00 0.00 0.00 0.00
0.00 0.00 0.00 0.00 0.00 0.00 0.00 0.00 0.00 0.00 0.00 0.00 0.00 0.03 0.05 0.05 0.05 0.06 0.03 0.00 0.01 0.00 0.00 0.00 0.00 0.00 0.00 0.00 0.00 0.00 0.00 0.00 0.00 0.00 0.00 0.00 0.00 0.00 0.00 0.00 0.00 0.00 0.00 0.00 0.00 0.00 0.00 0.00 0.00
0.00 0.00 0.00 0.00 0.00 0.00 0.00 0.00 0.00 0.00 0.00 0.00 0.00 0.02 0.05 0.09 0.07 0.08 0.05 0.01 0.00 0.00 0.00 0.00 0.00 0.00 0.00 0.00 0.00 0.00 0.00 0.00 0.00 0.00 0.00 0.00 0.00 0.00 0.00 0.00 0.00 0.00 0.00 0.00 0.00 0.00 0.00 0.00 0.00
0.00 0.00 0.00 0.00 0.00 0.00 0.00 0.00 0.00 0.00 0.00 0.00 0.00 0.02 0.08 0.08 0.06 0.07 0.03 0.02 0.00 0.00 0.00 0.00 0.00 0.00 0.00 0.00 0.00 0.00 0.00 0.00 0.00 0.00 0.00 0.00 0.00 0.00 0.00 0.00 0.00 0.00 0.00 0.00 0.00 0.00 0.00 0.00 0.00
0.00 0.00 0.00 0.00 0.00 0.00 0.00 0.00 0.00 0.00 0.00 0.00 0.00 0.02 0.06 0.03 0.03 0.03 0.03 0.03 0.02 0.00 0.00 0.00 0.00 0.00 0.00 0.00 0.00 0.00 0.00 0.00 0.00 0.00 0.00 0.00 0.00 0.00 0.00 0.00 0.00 0.00 0.00 0.00 0.00 0.00 0.00 0.00 0.00
0.00 0.00 0.00 0.00 0.00 0.00 0.00 0.00 0.00 0.00 0.00 0.00 0.01 0.03 0.07 0.03 0.01 0.04 0.11 0.08 0.04 0.02 0.00 0.00 0.00 0.00 0.00 0.00 0.00 0.00 0.00 0.00 0.00 0.00 0.00 0.00 0.00 0.00 0.00 0.00 0.00 0.00 0.00 0.00 0.00 0.00 0.00 0.00 0.00
0.00 0.00 0.00 0.00 0.00 0.00 0.00 0.00 0.00 0.00 0.00 0.00 0.00 0.01 0.04 0.06 0.05 0.05 0.08 0.10 0.07 0.03 0.00 0.00 0.00 0.00 0.00 0.00 0.00 0.00 0.00 0.00 0.00 0.00 0.00 0.00 0.00 0.00 0.00 0.00 0.00 0.00 0.00 0.00 0.00 0.00 0.00 0.00 0.00
0.00 0.00 0.00 0.00 0.00 0.00 0.00 0.00 0.00 0.00 0.00 0.00 0.00 0.00 0.01 0.03 0.04 0.06 0.07 0.10 0.13 0.09 0.02 0.00 0.00 0.00 0.00 0.00 0.00 0.00 0.00 0.00 0.00 0.00 0.00 0.00 0.00 0.00 0.00 0.00 0.00 0.00 0.00 0.00 0.00 0.00 0.00 0.00 0.00
0.00 0.00 0.00 0.00 0.00 0.00 0.00 0.00 0.00 0.00 0.00 0.00 0.00 0.00 0.00 0.01 0.04 0.04 0.08 0.10 0.08 0.09 0.04 0.01 0.00 0.00 0.00 0.00 0.00 0.00 0.00 0.00 0.00 0.00 0.00 0.00 0.00 0.00 0.00 0.00 0.00 0.00 0.00 0.00 0.00 0.00 0.00 0.00 0.00
0.00 0.00 0.00 0.00 0.00 0.00 0.00 0.00 0.00 0.00 0.00 0.00 0.00 0.00 0.00 0.00 0.00 0.01 0.01 0.03 0.02 0.04 0.05 0.01 0.00 0.00 0.00 0.00 0.00 0.00 0.00 0.00 0.00 0.00 0.00 0.00 0.00 0.00 0.00 0.00 0.00 0.00 0.00 0.00 0.00 0.00 0.00 0.00 0.00
0.00 0.00 0.00 0.00 0.00 0.00 0.00 0.00 0.00 0.00 0.00 0.00 0.00 0.00 0.00 0.00 0.00 0.00 0.00 0.00 0.00 0.00 0.02 0.04 0.02 0.01 0.00 0.00 0.00 0.00 0.00 0.00 0.00 0.00 0.00 0.00 0.00 0.00 0.00 0.00 0.00 0.00 0.00 0.00 0.00 0.00 0.00 0.00 0.00
0.00 0.00 0.00 0.00 0.00 0.00 0.00 0.00 0.00 0.00 0.00 0.00 0.00 0.00 0.00 0.00 0.00 0.00 0.00 0.00 0.00 0.00 0.00 0.02 0.06 0.05 0.03 0.01 0.00 0.00 0.00 0.00 0.00 0.00 0.00 0.00 0.00 0.00 0.00 0.00 0.00 0.00 0.00 0.00 0.00 0.00 0.00 0.00 0.00
0.00 0.00 0.00 0.00 0.00 0.00 0.00 0.00 0.00 0.00 0.00 0.00 0.00 0.00 0.00 0.00 0.00 0.00 0.00 0.00 0.00 0.00 0.00 0.00 0.03 0.04 0.05 0.03 0.00 0.00 0.00 0.00 0.00 0.00 0.00 0.00 0.00 0.00 0.00 0.00 0.00 0.00 0.00 0.00 0.00 0.00 0.00 0.00 0.00
0.00 0.00 0.00 0.00 0.00 0.00 0.00 0.00 0.00 0.00 0.00 0.00 0.00 0.00 0.00 0.00 0.00 0.00 0.00 0.00 0.00 0.00 0.00 0.01 0.02 0.04 0.06 0.04 0.01 0.00 0.00 0.00 0.00 0.00 0.00 0.00 0.00 0.00 0.00 0.00 0.00 0.00 0.00 0.00 0.00 0.00 0.00 0.00 0.00
0.00 0.00 0.00 0.00 0.00 0.00 0.00 0.00 0.00 0.00 0.00 0.00 0.00 0.00 0.00 0.00 0.00 0.00 0.00 0.00 0.00 0.00 0.00 0.01 0.02 0.00 0.02 0.04 0.02 0.00 0.00 0.00 0.00 0.00 0.00 0.00 0.00 0.00 0.00 0.00 0.00 0.00 0.00 0.00 0.00 0.00 0.00 0.00 0.00
0.00 0.00 0.00 0.00 0.00 0.00 0.00 0.00 0.00 0.00 0.00 0.00 0.00 0.00 0.00 0.00 0.00 0.00 0.00 0.00 0.00 0.01 0.01 0.01 0.01 0.01 0.00 0.00 0.00 0.00 0.00 0.00 0.00 0.00 0.00 0.00 0.00 0.00 0.00 0.00 0.00 0.00 0.00 0.00 0.00 0.00 0.00 0.00 0.00
0.00 0.00 0.00 0.00 0.00 0.00 0.00 0.00 0.00 0.00 0.00 0.00 0.00 0.00 0.00 0.00 0.00 0.00 0.00 0.00 0.00 0.00 0.00 0.02 0.01 0.02 0.01 0.00 0.00 0.00 0.00 0.00 0.00 0.00 0.00 0.00 0.00 0.00 0.00 0.00 0.00 0.00 0.00 0.00 0.00 0.00 0.00 0.00 0.00
0.00 0.00 0.00 0.00 0.00 0.00 0.00 0.00 0.00 0.00 0.00 0.00 0.00 0.00 0.00 0.00 0.00 0.00 0.00 0.00 0.00 0.00 0.02 0.03 0.05 0.03 0.04 0.04 0.01 0.00 0.00 0.00 0.00 0.00 0.00 0.00 0.00 0.00 0.00 0.00 0.00 0.00 0.00 0.00 0.00 0.00 0.00 0.00 0.00
0.00 0.00 0.00 0.00 0.00 0.00 0.00 0.00 0.00 0.00 0.00 0.00 0.00 0.00 0.00 0.00 0.00 0.00 0.00 0.00 0.01 0.00 0.02 0.04 0.05 0.07 0.04 0.03 0.04 0.03 0.02 0.02 0.01 0.00 0.00 0.00 0.00 0.00 0.00 0.00 0.00 0.00 0.00 0.00 0.00 0.00 0.00 0.00 0.00
0.00 0.00 0.00 0.00 0.00 0.00 0.00 0.00 0.00 0.00 0.00 0.00 0.00 0.00 0.00 0.00 0.00 0.00 0.00 0.00 0.00 0.01 0.01 0.02 0.05 0.07 0.07 0.08 0.07 0.05 0.04 0.05 0.03 0.01 0.00 0.00 0.00 0.00 0.00 0.00 0.00 0.00 0.00 0.00 0.00 0.00 0.00 0.00 0.00
MSLP
1014.83 1014.75 1014.84 1015.20 1016.19 1015.57 1013.59 1012.01 1010.73 1010.04 1009.57 1008.60 1008.34 1008.70 1008.62 1009.14 1010.22 1011.26 1010.18 1010.32 1010.65 1011.38 1011.83 1012.42 1012.97 1013.50 1013.95 1014.36 1014.69 1015.02 1015.28 1015.62 1015.86 1016.05 1016.22 1016.36 1016.60 1016.75 1016.92 1017.06 1017.16 1017.15 1017.22 1017.31 1017.42 1017.48 1017.52 1017.50 1017.52
1015.02 1014.88 1015.32 1015.89 1015.81 1014.99 1013.11 1012.24 1010.95 1009.75 1009.08 1008.74 1008.57 1008.66 1008.97 1009.25 1009.68 1010.27 1010.61 1010.69 1010.88 1011.46 1012.00 1012.48 1012.97 1013.47 1013.97 1014.44 1014.83 1015.11 1015.49 1015.84 1016.11 1016.32 1016.49 1016.62 1016.84 1017.01 1017.17 1017.25 1017.33 1017.35 1017.42 1017.52 1017.63 1017.70 1017.70 1017.70 1017.65
1015.02 1015.25 1016.02 1016.30 1015.78 1014.27 1013.44 1011.94 1010.95 1009.92 1009.35 1009.49 1009.09 1008.96 1009.22 1009.44 1009.82 1009.88 1010.09 1010.49 1010.97 1011.72 1012.33 1012.67 1013.07 1013.47 1013.97 1014.48 1014.99 1015.36 1015.72 1015.99 1016.28 1016.53 1016.75 1016.90 1017.09 1017.24 1017.39 1017.51 1017.56 1017.60 1017.65 1017.76 1017.80 1017.81 1017.83 1017.81 1017.76
1015.21 1015.81 1016.43 1016.25 1015.29 1014.24 1012.80 1011.77 1011.31 1010.53 1009.60 1009.56 1009.51 1009.43 1009.47 1009.50 1009.71 1009.84 1010.32 1010.62 1011.07 1011.82 1012.47 1012.91 1013.19 1013.63 1014.14 1014.59 1015.14 1015.59 1015.91 1016.20 1016.48 1016.72 1016.95 1017.13 1017.33 1017.50 1017.63 1017.79 1017.94 1017.97 1017.93 1017.92 1017.97 1017.92 1017.88 1017.84 1017.77
1015.58 1016.23 1016.60 1016.29 1015.66 1014.78 1013.54 1012.10 1011.17 1011.01 1010.12 1009.77 1010.02 1009.68 1009.85 1009.69 1009.67 1010.08 1010.70 1011.00 1011.23 1011.99 1012.48 1013.03 1013.43 1013.82 1014.32 1014.80 1015.25 1015.73 1016.10 1016.40 1016.65 1016.88 1017.13 1017.35 1017.56 1017.70 1017.87 1018.02 1018.15 1018.15 1018.21 1018.10 1018.11 1018.09 1018.02 1017.99 1017.98
1016.08 1016.66 1016.95 1016.74 1016.11 1014.92 1013.73 1012.36 1011.67 1010.84 1010.13 1009.86 1010.00 1010.10 1010.19 1010.04 1010.03 1010.56 1011.08 1011.40 1011.76 1012.27 1012.68 1013.14 1013.69 1014.13 1014.62 1015.06 1015.42 1015.75 1016.22 1016.57 1016.91 1017.13 1017.35 1017.61 1017.82 1017.99 1018.09 1018.28 1018.28 1018.30 1018.35 1018.23 1018.28 1018.21 1018.21 1018.17 1018.22
1016.34 1017.04 1016.98 1016.83 1016.20 1014.92 1013.59 1012.44 1011.96 1010.82 1009.90 1009.42 1009.58 1010.09 1010.63 1010.67 1010.57 1010.64 1011.30 1011.72 1012.16 1012.47 1012.88 1013.48 1014.02 1014.47 1014.91 1015.35 1015.63 1015.95 1016.38 1016.73 1017.14 1017.41 1017.67 1017.97 1018.15 1018.23 1018.40 1018.54 1018.47 1018.54 1018.56 1018.45 1018.46 1018.40 1018.29 1018.36 1018.46
1016.22 1016.65 1016.86 1016.53 1016.08 1015.03 1013.48 1012.57 1012.07 1011.08 1010.01 1009.16 1008.88 1010.11 1010.50 1010.39 1010.54 1010.94 1011.50 1012.05 1012.59 1012.96 1013.24 1013.80 1014.34 1014.77 1015.27 1015.70 1015.99 1016.36 1016.71 1017.06 1017.44 1017.74 1017.99 1018.30 1018.44 1018.49 1018.72 1018.81 1018.72 1018.82 1018.84 1018.75 1018.68 1018.66 1018.61 1018.58 1018.69
1015.94 1016.47 1016.47 1015.99 1015.45 1014.63 1013.35 1013.04 1012.00 1010.94 1010.55 1010.03 1009.33 1010.21 1010.13 1010.22 1010.64 1010.96 1011.68 1012.35 1012.79 1013.35 1013.77 1014.16 1014.72 1015.23 1015.63 1016.00 1016.39 1016.74 1017.10 1017.44 1017.79 1018.18 1018.40 1018.65 1018.81 1019.00 1019.13 1019.11 1019.01 1018.99 1019.01 1018.86 1018.89 1019.00 1019.07 1019.08 1019.03
1016.14 1016.28 1015.95 1015.24 1014.56 1014.23 1013.51 1013.18 1012.71 1011.72 1010.87 1010.48 1010.36 1010.10 1009.36 1009.96 1010.60 1010.36 1011.19 1011.95 1012.56 1013.35 1014.10 1014.49 1014.92 1015.59 1015.97 1016.29 1016.79 1017.14 1017.39 1017.80 1018.05 1018.46 1018.83 1019.08 1019.15 1019.26 1019.27 1019.29 1019.28 1019.15 1019.30 1019.23 1019.33 1019.43 1019.52 1019.64 1019.80
1015.78 1015.73 1015.43 1014.77 1014.31 1014.01 1013.39 1012.85 1012.34 1011.82 1011.16 1010.64 1010.75 1009.95 1009.89 1010.31 1010.57 1010.64 1011.20 1011.84 1012.65 1013.51 1014.33 1014.97 1015.28 1015.77 1016.21 1016.74 1017.31 1017.58 1017.81 1018.15 1018.44 1018.59 1018.79 1019.19 1019.45 1019.51 1019.54 1019.63 1019.72 1019.65 1019.62 1019.84 1019.90 1019.94 1020.08 1020.22 1020.27
1015.82 1015.24 1015.04 1014.51 1014.08 1013.92 1013.40 1012.70 1012.15 1011.55 1010.91 1010.03 1010.21 1010.07 1009.88 1010.09 1010.78 1010.58 1011.06 1011.59 1012.62 1013.52 1014.30 1015.13 1015.34 1015.82 1016.42 1016.93 1017.64 1017.89 1018.15 1018.41 1018.72 1018.87 1018.96 1019.27 1019.67 1019.84 1019.84 1019.97 1020.06 1019.97 1019.99 1020.19 1020.32 1020.36 1020.43 1020.57 1020.68
1015.69 1015.24 1014.73 1014.31 1013.95 1013.72 1013.11 1012.54 1011.93 1011.33 1010.43 1010.10 1009.91 1009.92 1009.79 1009.68 1010.78 1011.18 1011.38 1011.76 1012.54 1013.68 1014.48 1015.23 1015.57 1016.05 1016.43 1017.04 1017.64 1017.96 1018.11 1018.36 1018.59 1018.93 1019.08 1019.31 1019.65 1019.96 1020.04 1020.16 1020.17 1020.26 1020.23 1020.40 1020.57 1020.59 1020.68 1020.87 1020.96
1015.49 1015.24 1014.84 1014.22 1013.43 1013.23 1012.79 1011.98 1011.51 1010.69 1010.28 1010.19 1010.15 1010.38 1010.56 1010.52 1010.31 1010.93 1011.17 1011.85 1012.38 1013.44 1014.64 1015.18 1015.60 1016.05 1016.40 1016.97 1017.50 1017.87 1017.97 1018.33 1018.61 1018.91 1019.07 1019.27 1019.52 1019.90 1020.03 1020.22 1020.40 1020.50 1020.43 1020.58 1020.67 1020.79 1020.88 1021.20 1021.23
1015.51 1015.35 1014.65 1013.81 1013.28 1012.74 1012.10 1011.62 1011.24 1010.64 1010.42 1010.19 1010.24 1010.21 1010.64 1010.83 1010.55 1010.30 1010.64 1011.13 1012.22 1013.20 1014.39 1015.16 1015.55 1016.02 1016.41 1016.82 1017.29 1017.77 1017.95 1018.23 1018.57 1018.84 1018.95 1019.20 1019.55 1019.69 1019.86 1020.23 1020.52 1020.61 1020.58 1020.70 1020.90 1021.07 1021.17 1021.38 1021.46
1015.87 1015.72 1015.29 1014.00 1013.49 1012.80 1012.71 1012.23 1011.27 1010.30 1010.30 1010.35 1010.30 1010.15 1010.37 1010.53 1010.38 1010.41 1010.73 1010.96 1012.00 1012.88 1013.94 1014.88 1015.21 1015.83 1016.35 1016.77 1017.20 1017.56 1017.84 1018.20 1018.48 1018.85 1018.94 1019.11 1019.40 1019.57 1019.97 1020.25 1020.56 1020.62 1020.73 1020.94 1021.19 1021.39 1021.60 1021.79 1021.91
1016.56 1016.53 1015.91 1014.76 1013.70 1013.27 1013.19 1012.69 1011.44 1010.60 1010.57 1010.54 1010.38 1010.10 1010.08 1010.21 1010.44 1010.64 1010.62 1011.42 1012.08 1012.59 1013.39 1014.35 1014.82 1015.37 1016.08 1016.66 1017.00 1017.46 1017.75 1018.17 1018.54 1018.89 1019.03 1019.12 1019.33 1019.56 1019.93 1020.32 1020.55 1020.62 1020.90 1021.07 1021.22 1021.65 1021.79 1022.16 1022.31
1017.12 1016.94 1016.35 1015.71 1014.37 1013.64 1013.20 1012.70 1011.84 1011.05 1010.77 1010.32 1010.21 1009.92 1009.90 1009.66 1009.62 1010.02 1010.57 1010.95 1011.55 1012.39 1012.95 1013.63 1014.33 1014.95 1015.76 1016.52 1017.01 1017.67 1017.94 1018.08 1018.54 1018.91 1019.02 1019.12 1019.32 1019.57 1019.94 1020.32 1020.54 1020.76 1021.01 1021.36 1021.52 1021.70 1022.06 1022.33 1022.50
1017.02 1016.89 1016.56 1015.64 1014.55 1014.29 1013.31 1012.62 1011.91 1011.00 1010.58 1010.16 1009.99 1009.91 1009.76 1009.44 1009.33 1009.62 1010.35 1010.98 1010.43 1012.84 1013.11 1013.35 1013.79 1014.55 1015.32 1016.36 1017.12 1017.70 1017.86 1018.04 1018.45 1018.73 1018.85 1018.99 1019.30 1019.60 1019.91 1020.28 1020.55 1020.81 1021.15 1021.37 1021.61 1021.92 1022.24 1022.68 1022.77
1016.73 1016.75 1016.31 1015.35 1014.61 1014.43 1013.32 1012.10 1011.32 1010.52 1009.78 1009.20 1009.32 1009.50 1009.42 1009.51 1009.59 1009.82 1010.34 1010.64 1012.05 1012.11 1012.87 1013.25 1013.43 1013.86 1014.63 1015.53 1016.07 1016.55 1017.05 1017.69 1017.95 1018.40 1018.78 1018.86 1019.14 1019.45 1019.79 1020.13 1020.49 1020.73 1021.19 1021.52 1021.69 1021.82 1022.41 1022.69 1022.82
1016.39 1016.50 1016.20 1015.85 1015.07 1014.39 1013.72 1011.69 1010.70 1009.74 1009.07 1008.42 1008.33 1008.28 1008.31 1008.72 1009.19 1009.59 1009.44 1009.82 1010.75 1011.57 1012.30 1012.87 1012.87 1013.47 1014.19 1014.94 1015.91 1016.44 1016.96 1017.61 1018.01 1018.28 1018.43 1018.64 1018.88 1019.23 1019.53 1019.97 1020.32 1020.63 1020.97 1021.44 1021.60 1021.76 1022.09 1022.66 1022.88
1015.99 1015.66 1015.78 1015.93 1015.99 1015.77 1014.78 1013.52 1011.34 1009.72 1009.01 1008.37 1007.87 1008.07 1007.51 1008.01 1008.63 1008.71 1009.06 1010.03 1010.09 1010.68 1011.21 1011.82 1012.46 1012.92 1013.80 1014.83 1015.51 1015.81 1016.14 1016.92 1016.83 1016.98 1017.82 1018.28 1018.62 1018.93 1019.33 1019.67 1020.01 1020.37 1020.75 1021.22 1021.43 1021.56 1021.88 1022.16 1022.62
1015.49 1015.22 1015.72 1015.95 1016.36 1016.31 1015.54 1015.13 1011.23 1010.15 1009.10 1007.99 1007.37 1007.26 1006.95 1006.81 1006.86 1007.62 1008.36 1008.86 1009.04 1010.13 1010.84 1011.20 1011.52 1012.63 1013.14 1014.98 1015.12 1015.47 1015.78 1016.07 1016.43 1017.06 1017.62 1018.06 1018.50 1018.76 1019.08 1019.41 1019.79 1020.15 1020.46 1020.79 1021.18 1021.44 1021.69 1021.95 1022.33
1015.18 1015.48 1015.94 1016.71 1017.00 1016.80 1015.53 1015.17 1011.72 1010.00 1008.37 1007.36 1006.78 1006.58 1006.38 1006.31 1006.32 1006.11 1006.49 1007.63 1008.48 1009.48 1010.18 1010.56 1011.11 1011.76 1012.30 1013.56 1014.80 1015.28 1015.23 1015.43 1016.10 1016.67 1017.16 1017.74 1018.23 1018.57 1018.85 1019.16 1019.53 1019.85 1020.26 1020.67 1020.91 1021.13 1021.54 1021.83 1022.05
1015.40 1016.15 1016.97 1017.52 1017.54 1016.73 1015.70 1015.15 1011.04 1008.97 1007.95 1007.27 1006.76 1006.36 1006.15 1006.05 1006.02 1006.17 1006.36 1006.76 1007.49 1008.56 1009.45 1010.05 1010.93 1011.60 1011.60 1012.51 1013.95 1014.34 1014.47 1014.60 1014.85 1015.46 1016.08 1017.01 1017.77 1018.08 1018.28 1018.72 1019.27 1019.69 1019.98 1020.41 1020.75 1021.07 1021.30 1021.72 1022.00
1015.33 1016.10 1016.88 1017.12 1017.39 1016.83 1015.58 1013.73 1010.04 1007.88 1007.26 1006.98 1006.40 1006.05 1005.85 1006.02 1005.98 1005.78 1005.87 1006.07 1006.65 1007.59 1008.57 1009.50 1010.03 1010.60 1010.91 1011.46 1012.45 1012.97 1013.49 1013.75 1014.29 1014.78 1015.09 1015.85 1016.53 1016.89 1017.34 1017.99 1018.63 1019.04 1019.61 1020.18 1020.58 1021.03 1021.16 1021.45 1021.84
1015.27 1015.76 1015.75 1016.47 1016.87 1016.78 1014.87 1012.33 1009.36 1007.21 1006.98 1006.93 1006.51 1006.28 1005.89 1005.78 1005.62 1005.68 1005.75 1005.63 1006.11 1006.63 1007.36 1008.04 1008.89 1009.40 1010.09 1011.11 1011.50 1011.51 1011.55 1012.41 1013.61 1014.33 1014.62 1015.05 1015.77 1016.49 1016.73 1017.49 1018.31 1018.66 1019.19 1019.85 1020.43 1020.78 1021.10 1021.42 1021.71
1014.27 1014.71 1015.80 1016.37 1016.73 1016.21 1014.25 1012.83 1010.21 1007.82 1007.36 1006.94 1006.52 1006.62 1006.16 1005.47 1005.40 1005.24 1005.28 1005.26 1005.46 1005.80 1006.44 1007.29 1007.44 1007.92 1008.83 1009.88 1010.66 1010.72 1011.54 1011.31 1012.76 1013.75 1014.18 1014.82 1015.24 1016.05 1016.37 1017.26 1017.95 1018.62 1018.96 1019.49 1020.30 1020.62 1020.90 1021.33 1021.70
1014.23 1014.55 1015.13 1015.59 1015.88 1015.33 1014.53 1011.52 1008.68 1007.72 1007.19 1007.22 1006.91 1006.59 1006.56 1006.00 1005.54 1005.06 1005.10 1004.99 1004.89 1005.17 1005.95 1006.62 1007.47 1007.96 1008.45 1009.16 1009.76 1010.38 1010.53 1011.54 1012.46 1012.70 1013.03 1013.90 1015.05 1015.04 1015.61 1016.58 1017.43 1018.09 1018.51 1019.16 1019.85 1020.48 1020.78 1021.10 1021.47
1012.88 1013.23 1013.98 1014.81 1015.07 1014.68 1013.84 1010.57 1007.54 1007.27 1006.93 1006.84 1006.97 1006.61 1006.51 1006.24 1005.60 1005.34 1005.00 1004.76 1004.82 1004.90 1005.23 1005.84 1006.64 1007.47 1007.86 1008.24 1008.88 1009.54 1010.06 1010.93 1011.57 1011.98 1012.53 1013.11 1014.19 1014.28 1014.92 1015.88 1017.14 1017.53 1018.06 1018.71 1019.26 1020.15 1020.49 1021.07 1021.15
Thickness
5662 5657 5654 5648 5628 5626 5654 5678 5709 5718 5721 5736 5741 5738 5744 5747 5737 5718 5752 5754 5753 5749 5746 5742 5739 5736 5733 5731 5729 5728 5728 5727 5727 5727 5727 5727 5726 5725 5725 5724 5723 5724 5724 5724 5723 5723 5723 5723 5722
5638 5630 5624 5613 5606 5613 5651 5670 5688 5712 5723 5727 5730 5736 5736 5739 5744 5741 5743 5748 5748 5744 5741 5739 5736 5734 5732 5728 5727 5726 5725 5725 5724 5724 5724 5725 5724 5724 5723 5722 5722 5722 5722 5722 5722 5721 5721 5721 5721
5616 5608 5595 5585 5590 5608 5626 5664 5679 5701 5711 5710 5716 5728 5730 5735 5739 5742 5747 5747 5744 5739 5735 5735 5733 5732 5730 5727 5724 5723 5722 5723 5722 5722 5722 5722 5721 5721 5721 5720 5721 5721 5721 5720 5720 5720 5720 5720 5720
5602 5591 5583 5575 5590 5613 5636 5655 5667 5683 5699 5703 5708 5710 5726 5736 5736 5740 5742 5742 5740 5735 5731 5729 5730 5728 5725 5724 5722 5720 5720 5720 5720 5720 5720 5720 5719 5719 5719 5718 5718 5718 5718 5718 5718 5719 5719 5720 5720
5590 5579 5569 5568 5578 5595 5614 5638 5662 5668 5684 5691 5693 5702 5711 5727 5735 5736 5734 5734 5733 5729 5727 5725 5725 5724 5721 5720 5719 5717 5716 5717 5717 5718 5717 5717 5717 5716 5716 5716 5716 5716 5716 5717 5717 5717 5717 5717 5717
5576 5568 5563 5558 5566 5583 5602 5626 5643 5660 5674 5685 5687 5692 5703 5719 5724 5725 5725 5725 5725 5723 5722 5721 5719 5718 5716 5716 5715 5715 5714 5714 5713 5714 5714 5713 5713 5713 5713 5712 5713 5714 5714 5715 5715 5715 5715 5715 5714
5569 5556 5560 5557 5560 5575 5595 5607 5622 5645 5664 5674 5686 5683 5694 5704 5713 5719 5719 5720 5718 5717 5717 5715 5713 5712 5711 5711 5711 5711 5710 5710 5710 5710 5710 5709 5709 5710 5709 5709 5710 5710 5710 5711 5711 5711 5713 5711 5710
5567 5561 5557 5557 5552 5561 5584 5600 5620 5638 5656 5676 5685 5679 5683 5702 5709 5711 5713 5713 5711 5711 5710 5710 5708 5707 5706 5705 5705 5705 5705 5706 5705 5705 5706 5705 5706 5706 5705 5705 5707 5706 5706 5707 5707 5707 5708 5707 5706
5575 5556 5550 5556 5559 5568 5586 5591 5618 5641 5648 5658 5673 5674 5681 5693 5700 5704 5703 5703 5704 5703 5704 5704 5702 5701 5700 5700 5699 5699 5700 5700 5700 5700 5701 5701 5702 5702 5701 5702 5703 5703 5703 5704 5703 5702 5702 5702 5701
5566 5552 5555 5566 5571 5571 5580 5587 5601 5621 5636 5648 5656 5664 5676 5683 5689 5700 5699 5698 5699 5697 5695 5697 5697 5694 5694 5694 5694 5695 5696 5696 5697 5696 5696 5696 5698 5698 5698 5699 5699 5699 5698 5698 5698 5697 5696 5695 5694
5568 5559 5564 5569 5572 5574 5581 5590 5605 5616 5629 5642 5642 5657 5673 5677 5683 5692 5693 5695 5692 5691 5688 5687 5689 5688 5688 5687 5687 5689 5691 5691 5692 5693 5695 5693 5693 5694 5695 5695 5695 5695 5695 5693 5693 5692 5691 5689 5688
5564 5569 5568 5572 5576 5576 5579 5592 5600 5616 5627 5645 5650 5656 5666 5673 5675 5683 5687 5690 5687 5686 5685 5680 5683 5684 5682 5683 5680 5682 5684 5685 5686 5688 5689 5690 5689 5689 5690 5689 5689 5689 5689 5688 5687 5687 5685 5683 5682
5565 5567 5572 5572 5573 5573 5581 5586 5597 5612 5629 5638 5648 5654 5661 5669 5669 5673 5679 5684 5684 5679 5677 5675 5676 5676 5678 5677 5676 5678 5681 5682 5683 5683 5684 5685 5685 5684 5684 5683 5684 5683 5683 5682 5681 5680 5680 5678 5675
5568 5567 5566 5568 5574 5577 5581 5590 5602 5616 5626 5631 5637 5641 5645 5654 5664 5669 5674 5673 5677 5675 5669 5670 5671 5670 5672 5672 5672 5674 5679 5678 5679 5680 5681 5681 5681 5679 5679 5678 5677 5676 5676 5675 5675 5674 5673 5670 5669
5568 5562 5566 5570 5575 5578 5585 5589 5596 5609 5612 5620 5627 5635 5637 5645 5657 5670 5672 5672 5675 5671 5665 5663 5666 5666 5668 5669 5670 5671 5674 5675 5676 5677 5678 5677 5675 5676 5676 5673 5671 5671 5670 5669 5668 5667 5667 5664 5663
5563 5560 5552 5568 5570 5576 5577 5572 5592 5603 5605 5611 5617 5627 5633 5643 5652 5662 5664 5668 5666 5664 5661 5658 5663 5663 5664 5666 5667 5668 5670 5671 5672 5672 5674 5674 5673 5672 5670 5668 5666 5666 5665 5663 5662 5661 5658 5657 5656
5550 5546 5549 5554 5567 5570 5570 5565 5582 5593 5596 5599 5607 5619 5629 5638 5643 5650 5655 5651 5655 5660 5658 5657 5661 5662 5660 5660 5664 5664 5666 5666 5666 5666 5668 5670 5669 5669 5666 5664 5662 5661 5660 5659 5658 5655 5653 5650 5649
5550 5545 5545 5543 5557 5563 5561 5561 5572 5581 5586 5594 5602 5614 5623 5635 5643 5648 5649 5653 5652 5650 5655 5656 5657 5657 5657 5655 5657 5657 5661 5663 5661 5660 5663 5664 5665 5665 5663 5660 5658 5656 5655 5653 5652 5651 5647 5645 5644
5551 5546 5539 5542 5553 5554 5556 5561 5565 5574 5579 5587 5593 5608 5615 5629 5637 5644 5640 5641 5639 5638 5643 5648 5652 5652 5653 5652 5652 5652 5655 5656 5657 5657 5658 5660 5660 5660 5659 5656 5655 5652 5650 5649 5647 5645 5643 5639 5638
5553 5546 5540 5546 5552 5552 5557 5567 5571 5574 5581 5592 5597 5602 5614 5620 5622 5629 5631 5627 5628 5627 5638 5641 5649 5651 5653 5652 5652 5652 5653 5653 5655 5655 5654 5656 5656 5656 5655 5653 5651 5649 5646 5643 5642 5642 5637 5635 5633
5551 5545 5540 5543 5546 5549 5549 5564 5573 5580 5582 5593 5600 5607 5618 5622 5622 5626 5635 5637 5632 5632 5630 5635 5645 5647 5650 5649 5644 5646 5648 5648 5650 5650 5651 5651 5653 5652 5651 5649 5647 5646 5643 5639 5638 5637 5635 5630 5628
5542 5552 5548 5544 5538 5519 5543 5547 5563 5574 5577 5586 5596 5600 5617 5619 5620 5626 5627 5624 5631 5634 5636 5636 5640 5643 5644 5639 5639 5644 5648 5644 5649 5653 5649 5648 5648 5648 5646 5645 5644 5642 5640 5636 5634 5633 5631 5629 5625
5549 5557 5550 5548 5528 5523 5529 5508 5558 5567 5576 5586 5595 5596 5611 5621 5628 5627 5628 5627 5631 5627 5627 5634 5638 5637 5639 5628 5632 5635 5640 5643 5643 5644 5644 5643 5643 5643 5642 5641 5640 5638 5636 5634 5631 5628 5626 5624 5621
5558 5552 5542 5520 5515 5534 5532 5522 5536 5565 5580 5593 5600 5601 5609 5618 5625 5632 5637 5632 5628 5627 5627 5633 5637 5641 5638 5634 5626 5626 5634 5638 5638 5639 5639 5638 5637 5638 5636 5636 5635 5634 5631 5628 5626 5625 5621 5618 5616
5548 5543 5470 5487 5529 5525 5484 5500 5556 5576 5580 5585 5593 5600 5605 5612 5621 5623 5627 5633 5631 5628 5626 5629 5631 5630 5636 5632 5622 5625 5630 5636 5640 5640 5641 5637 5633 5632 5633 5633 5630 5628 5626 5622 5620 5618 5616 5612 5609
5531 5529 5493 5507 5475 5510 5525 5532 5564 5583 5582 5584 5593 5599 5602 5605 5612 5621 5625 5629 5632 5628 5627 5625 5629 5629 5630 5626 5630 5629 5627 5635 5634 5636 5639 5637 5634 5633 5633 5631 5627 5625 5621 5617 5613 5610 5609 5607 5603
5527 5522 5531 5524 5500 5521 5523 5543 5572 5586 5581 5582 5584 5589 5597 5600 5606 5612 5615 5624 5627 5629 5627 5628 5627 5631 5631 5625 5625 5634 5641 5635 5629 5627 5633 5633 5630 5626 5628 5625 5621 5620 5616 5610 5606 5603 5600 5598 5596
5533 5529 5516 5514 5503 5514 5521 5527 5546 5577 5581 5580 5580 5579 5587 5596 5600 5605 5610 5614 5621 5623 5622 5621 5629 5633 5631 5627 5624 5632 5630 5635 5623 5621 5625 5624 5622 5619 5620 5616 5613 5609 5609 5604 5597 5595 5594 5590 5586
5526 5522 5519 5509 5499 5504 5512 5532 5552 5568 5572 5571 5570 5575 5576 5582 5589 5596 5600 5605 5612 5617 5613 5615 5615 5621 5623 5623 5622 5622 5625 5622 5621 5624 5625 5621 5612 5616 5616 5610 5606 5603 5602 5598 5591 5586 5585 5582 5578
5525 5526 5515 5498 5508 5486 5477 5528 5576 5568 5569 5566 5564 5571 5570 5575 5583 5586 5592 5598 5602 5607 5609 5609 5609 5610 5617 5621 5621 5618 5620 5617 5615 5618 5618 5613 5605 5609 5606 5603 5596 5596 5594 5590 5586 5578 5576 5571 5571